Casper, WY

5:51 AM MDT on July 23, 2017 (GMT -0600)
Natrona County International

Weather History for KCPR - November, 2011

Change the Weather History Date:

Wednesday, November 30, 2011

  Actual Average Record
Temperature  
Mean Temperature 36 °F 26 °F  
Max Temperature 46 °F 37 °F 63 °F (1999)
Min Temperature 26 °F 16 °F -17 °F (1985)
Degree Days  
Heating Degree Days 29 39  
Month to date heating degree days 964 958  
Since 1 July heating degree days 1637 1854  
Cooling Degree Days 0 0  
Month to date cooling degree days 0 0  
Year to date cooling degree days 519 422  
Moisture  
Dew Point 24 °F    
Average Humidity 66    
Maximum Humidity 92    
Minimum Humidity 40    
Precipitation  
Precipitation 0.12 in 0.02 in 0.15 in (2005)
Month to date precipitation 1.24 0.76  
Year to date precipitation 12.58 12.03  
Snow  
Snow 1.20 in 0.30 in - ()
Month to date snowfall 14.3 10.3  
Since 1 July snowfall 15.3 19.5  
Since 1 September snowfall 15.3 19.5  
Snow Depth 0.00 in    
Sea Level Pressure  
Sea Level Pressure 30.02 in    
Wind  
Wind Speed 16 mph (North)    
Max Wind Speed 24 mph    
Max Gust Speed 38 mph    
Visibility 6 miles    
Events Snow    
T = Trace of Precipitation, MM = Missing Value Source: NWS Daily Summary

Daily Weather History Graph

Daily Weather History Graph

Search for Another Location

Airport or City:

Trip Planner

Search our weather history database for the weather conditions in past years. The results will help you decide how hot, cold, wet, or windy it might be!

Date:

Astronomy

Nov. 30, 2011 Rise Set
Actual Time 7:15 AM MST 4:32 PM MST
Civil Twilight 6:44 AM MST 5:04 PM MST
Nautical Twilight 6:08 AM MST 5:39 PM MST
Astronomical Twilight 5:34 AM MST 6:13 PM MST
Moon 11:30 AM MST (11/30) 10:38 PM MST (11/30)
Length of Visible Light 10h 20m
Length of Day
9h 17m
Waxing Crescent, 34% of the Moon is Illuminated
Nov 30
Waxing Crescent
Dec 2
First Quarter
Dec 10
Full
Dec 17
Last Quarter
Dec 24
New

Hourly Weather History & Observations

Time (MST) Temp. Windchill Dew Point Humidity Pressure Visibility Wind Dir Wind Speed Gust Speed Precip Events Conditions
12:53 AM 39.9 °F 30.0 °F 21.9 °F 49% 29.91 in 10.0 mi SW 21.9 mph - N/A   Partly Cloudy
1:53 AM 41.0 °F 31.1 °F 23.0 °F 49% 29.87 in 10.0 mi SW 23.0 mph - N/A   Clear
2:53 AM 41.0 °F 32.2 °F 23.0 °F 49% 29.88 in 10.0 mi SW 18.4 mph 28.8 mph N/A   Clear
3:53 AM 39.0 °F 31.0 °F 23.0 °F 53% 29.87 in 10.0 mi SW 13.8 mph - N/A   Clear
4:53 AM 39.9 °F 31.4 °F 23.0 °F 51% 29.86 in 10.0 mi SSW 16.1 mph - N/A   Clear
5:53 AM 39.9 °F 30.8 °F 21.9 °F 49% 29.86 in 10.0 mi SW 18.4 mph 25.3 mph N/A   Clear
6:53 AM 37.9 °F 28.2 °F 21.9 °F 53% 29.85 in 10.0 mi SW 18.4 mph - N/A   Clear
7:53 AM 37.4 °F 28.2 °F 21.2 °F 52% 29.84 in 10.0 mi SW 16.1 mph 23.0 mph N/A   Clear
8:53 AM 39.2 °F 30.2 °F 21.2 °F 49% 29.84 in 10.0 mi SW 17.3 mph - N/A   Clear
9:53 AM 41.0 °F 32.2 °F 21.9 °F 47% 29.82 in 10.0 mi SSW 18.4 mph - N/A   Clear
10:53 AM 42.1 °F 34.2 °F 21.9 °F 45% 29.82 in 10.0 mi SW 16.1 mph - N/A   Partly Cloudy
11:53 AM 43.0 °F 35.4 °F 21.9 °F 43% 29.79 in 10.0 mi SSW 16.1 mph - N/A   Scattered Clouds
12:53 PM 44.1 °F 37.7 °F 21.9 °F 42% 29.79 in 10.0 mi SW 12.7 mph - N/A   Partly Cloudy
1:53 PM 45.0 °F 39.7 °F 21.9 °F 40% 29.79 in 10.0 mi SW 10.4 mph - N/A   Overcast
2:53 PM 44.1 °F 37.7 °F 23.0 °F 43% 29.81 in 10.0 mi North 12.7 mph 17.3 mph N/A   Overcast
3:53 PM 39.0 °F 30.3 °F 25.0 °F 57% 29.89 in 10.0 mi NNE 16.1 mph - N/A   Scattered Clouds
4:53 PM 35.1 °F 23.8 °F 28.9 °F 78% 29.95 in 10.0 mi NNE 20.7 mph 28.8 mph N/A   Overcast
5:14 PM 35.6 °F 24.0 °F 28.4 °F 75% 29.97 in 10.0 mi NNE 23.0 mph 31.1 mph N/A   Overcast
5:27 PM 33.8 °F 21.6 °F 28.4 °F 81% 29.98 in 10.0 mi NNE 23.0 mph 28.8 mph N/A   Overcast
5:53 PM 32.0 °F 18.1 °F 26.1 °F 79% 30.03 in 4.0 mi North 27.6 mph 35.7 mph 0.00 in Snow Light Snow
6:00 PM 30.2 °F 15.2 °F 26.6 °F 86% 30.01 in 4.0 mi North 29.9 mph 38.0 mph 0.00 in Snow Light Snow
6:15 PM 30.2 °F 14.7 °F 24.8 °F 80% 30.01 in 6.0 mi North 32.2 mph 38.0 mph 0.00 in Snow Light Snow
6:49 PM 30.2 °F 16.8 °F 24.8 °F 80% 30.03 in 3.0 mi NNE 23.0 mph 28.8 mph 0.00 in Snow Light Snow
6:53 PM 30.0 °F 17.5 °F 25.0 °F 82% 30.07 in 2.5 mi NNE 19.6 mph 28.8 mph 0.00 in Snow Light Snow
7:27 PM 30.2 °F 19.8 °F 24.8 °F 80% 30.08 in 1.8 mi NNE 13.8 mph 21.9 mph N/A Snow Light Snow
7:53 PM 28.9 °F 18.6 °F 25.0 °F 85% 30.15 in 1.5 mi NE 12.7 mph 20.7 mph 0.01 in Snow Light Snow
8:53 PM 28.9 °F 17.7 °F 25.0 °F 85% 30.18 in 1.2 mi NNE 15.0 mph 20.7 mph 0.03 in Snow Light Snow
9:10 PM 28.4 °F 18.0 °F 24.8 °F 86% 30.15 in 1.2 mi NNE 12.7 mph - 0.00 in Snow Light Snow
9:22 PM 28.4 °F 18.5 °F 24.8 °F 86% 30.16 in 1.2 mi NNE 11.5 mph - 0.01 in Snow Light Snow
9:34 PM 28.4 °F 18.5 °F 24.8 °F 86% 30.17 in 2.0 mi NNE 11.5 mph - 0.01 in Snow Light Snow
9:42 PM 28.4 °F 18.5 °F 24.8 °F 86% 30.17 in 2.5 mi NE 11.5 mph - 0.01 in Snow Light Snow
9:49 PM 28.4 °F 19.7 °F 24.8 °F 86% 30.18 in 2.5 mi NE 9.2 mph - 0.02 in Snow Light Snow
9:53 PM 28.4 °F 19.7 °F 24.8 °F 86% 30.18 in 2.5 mi NE 9.2 mph - N/A Snow Light Snow
10:13 PM 28.4 °F 23.3 °F 24.8 °F 86% 30.19 in 1.2 mi NE 4.6 mph - 0.00 in Snow Light Snow
10:40 PM 28.4 °F 24.6 °F 26.6 °F 93% 30.20 in 0.8 mi NE 3.5 mph - 0.02 in Snow Light Snow
10:53 PM 28.9 °F - 26.1 °F 89% 30.24 in 0.8 mi Calm Calm - 0.03 in Snow Light Snow
11:15 PM 28.4 °F 13.3 °F 24.8 °F 86% 30.23 in 0.8 mi North 27.6 mph 33.4 mph 0.03 in Snow Light Snow
11:22 PM 26.6 °F 12.4 °F 21.2 °F 80% 30.23 in 1.0 mi NNE 21.9 mph 32.2 mph 0.03 in Snow Light Snow
11:30 PM 26.6 °F 13.4 °F 23.0 °F 86% 30.24 in 1.2 mi North 18.4 mph - 0.03 in Snow Light Snow
11:42 PM 26.6 °F 12.4 °F 21.2 °F 80% 30.24 in 2.0 mi NNE 21.9 mph 28.8 mph 0.03 in Snow Light Snow
11:53 PM 26.1 °F 11.6 °F 21.9 °F 84% 30.29 in 3.0 mi NNE 21.9 mph - 0.03 in Snow Light Snow